Weather History for Russellville, AR

Change the Weather History Date:

Sunday, March 10, 2013

  Actual Average (KHOT) Record (KHOT)
Temperature  
Mean Temperature 52 °F -  
Max Temperature 66 °F 63 °F 84 °F (1955)
Min Temperature 37 °F 41 °F 23 °F (1998)
Degree Days  
Heating Degree Days 12    
Growing Degree Days 2 (Base 50)    
Moisture  
Dew Point 49 °F    
Average Humidity 85    
Maximum Humidity 97    
Minimum Humidity 64    
Precipitation  
Precipitation 1.47 in - - ()
Sea Level Pressure  
Sea Level Pressure 29.76 in    
Wind  
Wind Speed 7 mph (WNW)    
Max Wind Speed 24 mph    
Max Gust Speed 36 mph    
Visibility 6 miles    
Events Rain , Thunderstorm    
Averages and records for this station are not official NWS values.
T = Trace of Precipitation, MM = Missing Value Source: NWS Daily Summary

Daily Weather History Graph

Daily Weather History Graph

Search for Another Location

Airport:

Trip Planner

Search our weather history database for the weather conditions in past years. The results will help you decide how hot, cold, wet, or windy it might be!

Date:

Astronomy

Mar. 10, 2013 Rise Set
Actual Time 7:29 AM CDT 7:15 PM CDT
Civil Twilight 7:04 AM CDT 7:41 PM CDT
Nautical Twilight 6:34 AM CDT 8:10 PM CDT
Astronomical Twilight 6:05 AM CDT 8:40 PM CDT
Moon 6:28 AM CDT (3/10) 6:24 PM CDT (3/10)
Length of Visible Light 12h 37m
Length of Day
11h 46m
Waning Crescent, 2% of the Moon is Illuminated
Mar 10
Waning Crescent
Mar 11
New
Mar 19
First Quarter
Mar 27
Full
Apr 2
Last Quarter

Hourly Weather History & Observations

Time (CDT) Temp. Windchill Dew Point Humidity Pressure Visibility Wind Dir Wind Speed Gust Speed Precip Events Conditions
12:10 AM 66.2 °F - 53.6 °F 64% 29.77 in 10.0 mi South 9.2 mph - 0.00 in   Overcast
12:53 AM 66.0 °F - 55.0 °F 68% 29.76 in 10.0 mi Variable 4.6 mph 16.1 mph 0.00 in   Overcast
1:21 AM 60.8 °F - 55.4 °F 82% 29.79 in 3.0 mi NW 4.6 mph - 0.05 in Rain Heavy Rain
1:24 AM 60.8 °F - 55.4 °F 82% 29.78 in 2.5 mi NW 5.8 mph - 0.06 in Rain , Thunderstorm Heavy Rain
1:36 AM 60.8 °F - 57.2 °F 88% 29.78 in 3.0 mi WNW 5.8 mph - 0.14 in Rain , Thunderstorm Rain
1:43 AM 59.0 °F - 57.2 °F 94% 29.78 in 2.0 mi Calm Calm - 0.18 in Rain Heavy Rain
1:53 AM 59.0 °F - 57.9 °F 96% 29.76 in 3.0 mi Calm Calm - 0.21 in Rain Rain
3:22 AM 59.0 °F - 57.2 °F 94% 29.75 in 3.0 mi Variable 3.5 mph - 0.11 in Rain Heavy Rain
3:53 AM 59.0 °F - 57.0 °F 93% 29.73 in 6.0 mi Calm Calm - 0.16 in Rain Light Rain
4:53 AM 57.0 °F - 55.9 °F 96% 29.70 in 4.0 mi Calm Calm - 0.06 in Rain Light Rain
5:34 AM 57.2 °F - 55.4 °F 94% 29.71 in 5.0 mi WNW 3.5 mph - 0.08 in Rain Light Rain
5:38 AM 57.2 °F - 55.4 °F 94% 29.70 in 8.0 mi WNW 3.5 mph - 0.08 in Rain Light Rain
5:53 AM 57.0 °F - 55.9 °F 96% 29.67 in 4.0 mi Calm Calm - 0.10 in Rain Rain
6:05 AM 57.2 °F - 55.4 °F 94% 29.68 in 6.0 mi NNW 4.6 mph - 0.00 in Rain Light Rain
6:22 AM 57.2 °F - 55.4 °F 94% 29.68 in 9.0 mi Calm Calm - 0.00 in Rain Light Rain
6:40 AM 57.2 °F - 55.4 °F 94% 29.68 in 4.0 mi WNW 4.6 mph - 0.04 in Rain Heavy Rain
6:51 AM 57.2 °F - 55.4 °F 94% 29.68 in 4.0 mi WNW 8.1 mph - 0.07 in Rain Rain
7:05 AM 55.4 °F - 53.6 °F 94% 29.68 in 5.0 mi WNW 12.7 mph 19.6 mph 0.03 in Rain Rain
7:17 AM 55.4 °F - 53.6 °F 94% 29.67 in 2.5 mi NW 10.4 mph 18.4 mph 0.10 in Rain Heavy Rain
7:24 AM 55.4 °F - 53.6 °F 94% 29.68 in 2.5 mi NW 11.5 mph 20.7 mph 0.13 in Rain Heavy Rain
7:31 AM 55.4 °F - 53.6 °F 94% 29.68 in 4.0 mi WNW 11.5 mph 18.4 mph 0.14 in Rain Rain
7:53 AM 55.0 °F - 53.1 °F 93% 29.66 in 2.5 mi NW 12.7 mph - 0.23 in Rain Heavy Rain
8:02 AM 55.4 °F - 53.6 °F 94% 29.70 in 3.0 mi West 4.6 mph - 0.04 in Rain Heavy Rain
8:09 AM 55.4 °F - 53.6 °F 94% 29.71 in 2.0 mi WNW 11.5 mph - 0.09 in Rain Heavy Rain
8:23 AM 55.4 °F - 53.6 °F 94% 29.80 in 1.8 mi West 16.1 mph 25.3 mph 0.25 in Rain Heavy Rain
8:35 AM 53.6 °F - 48.2 °F 82% 29.76 in 2.0 mi WNW 24.2 mph 35.7 mph 0.37 in Rain Heavy Rain
8:38 AM 53.6 °F - 48.2 °F 82% 29.76 in 3.0 mi WNW 19.6 mph 33.4 mph 0.37 in Rain Heavy Rain
8:53 AM 53.1 °F - 48.9 °F 86% 29.74 in 5.0 mi NW 15.0 mph 25.3 mph 0.41 in Rain Rain
9:48 AM 53.6 °F - 50.0 °F 88% 29.79 in 1.8 mi West 4.6 mph - 0.08 in Rain Heavy Rain
9:53 AM 53.1 °F - 50.0 °F 89% 29.76 in 1.8 mi NW 4.6 mph - 0.10 in Rain Heavy Rain
10:00 AM 53.6 °F - 50.0 °F 88% 29.77 in 3.0 mi North 3.5 mph - 0.02 in Rain Rain
10:53 AM 52.0 °F - 51.1 °F 97% 29.78 in 4.0 mi SSE 3.5 mph - 0.09 in Rain Rain
11:53 AM 52.0 °F - 50.0 °F 93% 29.68 in 10.0 mi ESE 10.4 mph 16.1 mph 0.11 in Rain Light Rain
12:08 PM 53.6 °F - 51.8 °F 94% 29.73 in 10.0 mi ESE 5.8 mph - 0.00 in Rain Light Rain
12:53 PM 53.1 °F - 51.1 °F 93% 29.74 in 10.0 mi South 3.5 mph - 0.00 in   Overcast
1:53 PM 55.9 °F - 52.0 °F 87% 29.75 in 10.0 mi Variable 5.8 mph - N/A   Overcast
2:11 PM 57.2 °F - 51.8 °F 82% 29.75 in 10.0 mi South 6.9 mph - N/A   Overcast
2:42 PM 59.0 °F - 51.8 °F 77% 29.74 in 10.0 mi Variable 6.9 mph - N/A   Overcast
2:53 PM 59.0 °F - 52.0 °F 78% 29.73 in 10.0 mi SSW 9.2 mph - N/A   Mostly Cloudy
3:53 PM 55.9 °F - 46.0 °F 69% 29.75 in 10.0 mi WNW 10.4 mph 26.5 mph N/A   Overcast
4:53 PM 50.0 °F - 39.9 °F 68% 29.80 in 10.0 mi West 20.7 mph 34.5 mph N/A   Mostly Cloudy
5:53 PM 48.0 °F - 39.0 °F 71% 29.82 in 10.0 mi West 12.7 mph 23.0 mph N/A   Overcast
6:53 PM 46.9 °F - 37.0 °F 68% 29.84 in 10.0 mi WNW 11.5 mph 24.2 mph N/A   Overcast
7:03 PM 46.4 °F 40.7 °F 37.4 °F 71% 29.85 in 10.0 mi West 12.7 mph 21.9 mph N/A   Overcast
7:53 PM 45.0 °F 38.9 °F 36.0 °F 71% 29.86 in 10.0 mi West 12.7 mph 20.7 mph N/A   Mostly Cloudy
8:53 PM 44.1 °F 37.4 °F 36.0 °F 73% 29.89 in 10.0 mi West 13.8 mph - N/A   Overcast
9:53 PM 43.0 °F 35.7 °F 35.1 °F 74% 29.91 in 10.0 mi West 15.0 mph 24.2 mph N/A   Overcast
10:53 PM 41.0 °F 34.3 °F 35.1 °F 79% 29.93 in 10.0 mi West 11.5 mph 18.4 mph N/A   Overcast
11:53 PM 39.0 °F 31.0 °F 30.9 °F 73% 29.94 in 10.0 mi West 13.8 mph 21.9 mph N/A   Overcast
12:28 AM 39.2 °F 30.8 °F 30.2 °F 70% 29.94 in 10.0 mi West 15.0 mph 26.5 mph N/A   Overcast
12:53 AM 37.9 °F 30.5 °F 28.9 °F 70% 29.93 in 10.0 mi West 11.5 mph 17.3 mph N/A   Overcast